"Period start","avg(HW err(1)/warn(2) (#))","avg(Visibility (m))","avg(Weather code (#))","avg(Precip intensity (mm/h))","min(HW err(1)/warn(2) (#))","max(HW err(1)/warn(2) (#))","std(HW err(1)/warn(2) (#))","med(HW err(1)/warn(2) (#))","min(Visibility (m))","max(Visibility (m))","std(Visibility (m))","med(Visibility (m))","min(Weather code (#))","max(Weather code (#))","std(Weather code (#))","med(Weather code (#))","min(Precip intensity (mm/h))","max(Precip intensity (mm/h))","std(Precip intensity (mm/h))","med(Precip intensity (mm/h))"
2016-06-17 00:00:00,2,49537,0,0.00,2,2,0,2,46359,50000,1100,50000,0,0,0,0,0.00,0.00,0.00,0.00
2016-06-17 00:10:00,2,47279,0,0.00,2,2,0,2,35028,50000,4812,50000,0,0,0,0,0.00,0.00,0.00,0.00
2016-06-17 00:20:00,2,49654,0,0.00,2,2,0,2,48265,50000,540,50000,0,0,0,0,0.00,0.00,0.00,0.00
2016-06-17 00:30:00,2,49865,0,0.00,2,2,0,2,48651,50000,405,50000,0,0,0,0,0.00,0.00,0.00,0.00
2016-06-17 00:40:00,2,47954,0,0.00,2,2,0,2,41583,50000,3201,50000,0,0,0,0,0.00,0.00,0.00,0.00
2016-06-17 00:50:00,2,50000,0,0.00,2,2,0,2,50000,50000,0,50000,0,0,0,0,0.00,0.00,0.00,0.00
2016-06-17 01:00:00,2,49488,0,0.00,2,2,0,2,47298,50000,880,50000,0,0,0,0,0.00,0.00,0.00,0.00
2016-06-17 01:10:00,2,50000,0,0.00,2,2,0,2,50000,50000,0,50000,0,0,0,0,0.00,0.00,0.00,0.00
2016-06-17 01:20:00,2,49977,0,0.00,2,2,0,2,49768,50000,70,50000,0,0,0,0,0.00,0.00,0.00,0.00
2016-06-17 01:30:00,2,50000,0,0.00,2,2,0,2,50000,50000,0,50000,0,0,0,0,0.00,0.00,0.00,0.00
2016-06-17 01:40:00,2,50000,0,0.00,2,2,0,2,50000,50000,0,50000,0,0,0,0,0.00,0.00,0.00,0.00
2016-06-17 01:50:00,2,50000,0,0.00,2,2,0,2,50000,50000,0,50000,0,0,0,0,0.00,0.00,0.00,0.00
2016-06-17 02:00:00,2,50000,0,0.00,2,2,0,2,50000,50000,0,50000,0,0,0,0,0.00,0.00,0.00,0.00
2016-06-17 02:10:00,2,48290,13,0.13,2,2,0,2,40986,50000,3427,50000,0,51,20,0,0.00,0.65,0.25,0.00
2016-06-17 02:20:00,2,40601,51,0.17,2,2,0,2,32882,47402,4591,40256,51,51,0,51,0.05,0.35,0.10,0.15
2016-06-17 02:30:00,2,29675,51,0.40,2,2,0,2,9917,45325,12254,34731,51,52,0,51,0.10,0.80,0.22,0.40
2016-06-17 02:40:00,2,11505,52,0.93,2,2,0,2,8763,13933,1757,11546,52,52,0,52,0.60,1.45,0.23,0.95
2016-06-17 02:50:00,2,9516,57,1.56,2,2,0,2,7822,12139,1274,9644,52,61,4,61,0.85,2.30,0.48,1.40
2016-06-17 03:00:00,2,11542,61,0.66,2,2,0,2,9582,14512,1537,11342,61,61,0,61,0.20,1.00,0.27,0.73
2016-06-17 03:10:00,2,11308,52,0.39,2,2,0,2,9844,14068,1244,11218,51,61,3,51,0.25,0.70,0.16,0.30
2016-06-17 03:20:00,2,8916,51,0.86,2,2,0,2,7257,9610,819,9301,51,52,0,51,0.30,1.60,0.44,0.68
2016-06-17 03:30:00,2,9581,52,0.71,2,2,0,2,6582,11011,1460,10307,51,52,0,52,0.20,1.15,0.33,0.70
2016-06-17 03:40:00,2,13558,51,0.40,2,2,0,2,10392,17252,2018,13958,51,51,0,51,0.20,0.90,0.20,0.38
2016-06-17 03:50:00,2,20532,51,0.23,2,2,0,2,13278,30536,6333,17200,51,51,0,51,0.00,0.65,0.22,0.10
2016-06-17 04:00:00,2,20332,51,0.20,2,2,0,2,14140,27801,4161,20772,51,51,0,51,0.00,0.40,0.12,0.17
2016-06-17 04:10:00,2,16886,51,0.17,2,2,0,2,13603,23331,2589,16506,51,51,0,51,0.00,0.30,0.09,0.20
2016-06-17 04:20:00,2,19901,51,0.40,2,2,0,2,15705,27916,3340,19722,51,51,0,51,0.20,0.80,0.17,0.35
2016-06-17 04:30:00,2,20612,51,0.39,2,2,0,2,13043,26479,3974,20882,51,51,0,51,0.20,0.65,0.14,0.38
2016-06-17 04:40:00,2,11536,52,0.64,2,2,0,2,9311,15179,1417,11345,51,52,0,52,0.15,1.60,0.41,0.60
2016-06-17 04:50:00,2,14942,54,0.21,2,2,0,2,12657,18000,1641,15178,51,61,5,51,0.10,0.35,0.08,0.17
2016-06-17 05:00:00,2,16757,51,0.21,2,2,0,2,14884,18733,1194,16863,51,51,0,51,0.10,0.35,0.06,0.20
2016-06-17 05:10:00,2,14933,51,0.38,2,2,0,2,12094,18456,1902,15148,51,51,0,51,0.15,0.75,0.17,0.38
2016-06-17 05:20:00,2,29074,51,0.12,2,2,0,2,16532,42311,8835,29440,51,51,0,51,0.00,0.35,0.10,0.12
2016-06-17 05:30:00,2,43035,52,0.07,2,2,0,2,37775,49270,3206,43242,51,61,3,51,0.00,0.15,0.05,0.05
2016-06-17 05:40:00,2,49643,46,0.03,2,2,0,2,47472,50000,788,50000,41,61,7,41,0.00,0.20,0.06,0.00
2016-06-17 05:50:00,2,45744,51,0.15,2,2,0,2,39105,50000,3793,45074,41,61,6,51,0.00,0.55,0.15,0.10
2016-06-17 06:00:00,2,31938,51,0.11,2,2,0,2,22374,41715,6924,29834,51,51,0,51,0.05,0.20,0.05,0.10
2016-06-17 06:10:00,2,25382,31,0.04,2,2,0,2,19280,38984,5637,23882,0,51,25,51,0.00,0.15,0.05,0.03
2016-06-17 06:20:00,2,18447,30,0.04,2,2,0,2,12449,27720,5492,15912,0,61,30,26,0.00,0.20,0.07,0.00
2016-06-17 06:30:00,2,19335,15,0.01,2,2,0,2,12556,23849,3861,19079,0,51,23,0,0.00,0.10,0.03,0.00
2016-06-17 06:40:00,2,13245,55,0.07,2,2,0,2,11647,14296,825,13420,51,61,5,51,0.00,0.20,0.06,0.05
2016-06-17 06:50:00,2,18983,0,0.00,2,2,0,2,13836,25690,2946,19422,0,0,0,0,0.00,0.00,0.00,0.00
2016-06-17 07:00:00,2,33094,0,0.00,2,2,0,2,27791,39401,4425,31148,0,0,0,0,0.00,0.00,0.00,0.00
2016-06-17 07:10:00,2,47625,0,0.00,2,2,0,2,38641,50000,3438,49210,0,0,0,0,0.00,0.00,0.00,0.00
2016-06-17 07:20:00,2,45937,0,0.00,2,2,0,2,37633,50000,4341,47797,0,0,0,0,0.00,0.00,0.00,0.00
2016-06-17 07:30:00,2,31433,0,0.00,2,2,0,2,17337,46234,8542,31064,0,0,0,0,0.00,0.00,0.00,0.00
2016-06-17 07:40:00,2,15821,4,0.01,2,2,0,2,10863,21522,3572,15972,0,40,12,0,0.00,0.15,0.05,0.00
2016-06-17 07:50:00,2,18358,45,0.23,2,2,0,2,10469,32567,7786,14462,0,51,15,51,0.00,0.60,0.17,0.20
2016-06-17 08:00:00,2,46911,0,0.00,2,2,0,2,32779,50000,5907,50000,0,0,0,0,0.00,0.00,0.00,0.00
2016-06-17 08:10:00,2,50000,0,0.00,2,2,0,2,50000,50000,0,50000,0,0,0,0,0.00,0.00,0.00,0.00
2016-06-17 08:20:00,2,49930,0,0.00,2,2,0,2,49300,50000,210,50000,0,0,0,0,0.00,0.00,0.00,0.00
2016-06-17 08:30:00,2,50000,0,0.00,2,2,0,2,50000,50000,0,50000,0,0,0,0,0.00,0.00,0.00,0.00
2016-06-17 08:40:00,2,49907,0,0.00,2,2,0,2,49073,50000,278,50000,0,0,0,0,0.00,0.00,0.00,0.00
2016-06-17 08:50:00,2,50000,0,0.00,2,2,0,2,50000,50000,0,50000,0,0,0,0,0.00,0.00,0.00,0.00
2016-06-17 09:00:00,2,50000,0,0.00,2,2,0,2,50000,50000,0,50000,0,0,0,0,0.00,0.00,0.00,0.00
2016-06-17 09:10:00,2,50000,0,0.00,2,2,0,2,50000,50000,0,50000,0,0,0,0,0.00,0.00,0.00,0.00
2016-06-17 09:20:00,2,50000,0,0.00,2,2,0,2,50000,50000,0,50000,0,0,0,0,0.00,0.00,0.00,0.00
2016-06-17 09:30:00,2,50000,0,0.00,2,2,0,2,50000,50000,0,50000,0,0,0,0,0.00,0.00,0.00,0.00
2016-06-17 09:40:00,2,49217,0,0.00,2,2,0,2,45802,50000,1571,50000,0,0,0,0,0.00,0.00,0.00,0.00
2016-06-17 09:50:00,2,50000,0,0.00,2,2,0,2,50000,50000,0,50000,0,0,0,0,0.00,0.00,0.00,0.00
2016-06-17 10:00:00,2,50000,0,0.00,2,2,0,2,50000,50000,0,50000,0,0,0,0,0.00,0.00,0.00,0.00
2016-06-17 10:10:00,2,50000,0,0.00,2,2,0,2,50000,50000,0,50000,0,0,0,0,0.00,0.00,0.00,0.00
2016-06-17 10:20:00,2,49467,0,0.00,2,2,0,2,46194,50000,1182,50000,0,0,0,0,0.00,0.00,0.00,0.00
2016-06-17 10:30:00,2,49866,0,0.00,2,2,0,2,48657,50000,403,50000,0,0,0,0,0.00,0.00,0.00,0.00
2016-06-17 10:40:00,2,49748,0,0.00,2,2,0,2,47485,50000,754,50000,0,0,0,0,0.00,0.00,0.00,0.00
2016-06-17 10:50:00,2,50000,0,0.00,2,2,0,2,50000,50000,0,50000,0,0,0,0,0.00,0.00,0.00,0.00
2016-06-17 11:00:00,2,50000,0,0.00,2,2,0,2,50000,50000,0,50000,0,0,0,0,0.00,0.00,0.00,0.00
2016-06-17 11:10:00,2,50000,0,0.00,2,2,0,2,50000,50000,0,50000,0,0,0,0,0.00,0.00,0.00,0.00
2016-06-17 11:20:00,2,49848,0,0.00,2,2,0,2,49122,50000,309,50000,0,0,0,0,0.00,0.00,0.00,0.00
2016-06-17 11:30:00,2,50000,0,0.00,2,2,0,2,50000,50000,0,50000,0,0,0,0,0.00,0.00,0.00,0.00
2016-06-17 11:40:00,2,50000,0,0.00,2,2,0,2,50000,50000,0,50000,0,0,0,0,0.00,0.00,0.00,0.00
2016-06-17 11:50:00,2,44095,0,0.00,2,2,0,2,25937,50000,7722,46528,0,0,0,0,0.00,0.00,0.00,0.00
2016-06-17 12:00:00,2,38750,0,0.00,2,2,0,2,8573,50000,15545,48014,0,0,0,0,0.00,0.00,0.00,0.00
2016-06-17 12:10:00,2,20680,0,0.00,2,2,0,2,7973,35520,7186,19249,0,0,0,0,0.00,0.00,0.00,0.00
2016-06-17 12:20:00,2,32421,0,0.00,2,2,0,2,12352,50000,11573,33027,0,0,0,0,0.00,0.00,0.00,0.00
2016-06-17 12:30:00,2,47185,0,0.00,2,2,0,2,37685,50000,4009,48820,0,0,0,0,0.00,0.00,0.00,0.00
2016-06-17 12:40:00,2,49229,0,0.00,2,2,0,2,44054,50000,1804,50000,0,0,0,0,0.00,0.00,0.00,0.00
2016-06-17 12:50:00,2,50000,0,0.00,2,2,0,2,50000,50000,0,50000,0,0,0,0,0.00,0.00,0.00,0.00
2016-06-17 13:00:00,2,31638,0,0.00,2,2,0,2,14471,44154,9578,33827,0,0,0,0,0.00,0.00,0.00,0.00
2016-06-17 13:10:00,2,38528,0,0.00,2,2,0,2,13669,50000,12835,42266,0,0,0,0,0.00,0.00,0.00,0.00
2016-06-17 13:20:00,2,17955,0,0.00,2,2,0,2,7055,39111,11725,12790,0,0,0,0,0.00,0.00,0.00,0.00
2016-06-17 13:30:00,2,38873,0,0.00,2,2,0,2,27062,50000,9153,36662,0,0,0,0,0.00,0.00,0.00,0.00
2016-06-17 13:40:00,2,17823,0,0.00,2,2,0,2,10435,28937,5948,17174,0,0,0,0,0.00,0.00,0.00,0.00
2016-06-17 13:50:00,2,7297,3,0.00,2,2,0,2,4272,15947,3550,5515,0,10,5,0,0.00,0.00,0.00,0.00
2016-06-17 14:00:00,2,18098,4,0.00,2,2,0,2,5856,34382,11201,12196,0,10,5,0,0.00,0.00,0.00,0.00
2016-06-17 14:10:00,2,31372,0,0.00,2,2,0,2,8796,50000,16503,32060,0,0,0,0,0.00,0.00,0.00,0.00
2016-06-17 14:20:00,2,35680,0,0.00,2,2,0,2,11283,50000,15607,41440,0,0,0,0,0.00,0.00,0.00,0.00
2016-06-17 14:30:00,2,13307,0,0.00,2,2,0,2,3456,27709,7563,11200,0,0,0,0,0.00,0.00,0.00,0.00
2016-06-17 14:40:00,2,15922,8,0.00,2,2,0,2,1863,50000,17057,7640,0,10,4,10,0.00,0.00,0.00,0.00
2016-06-17 14:50:00,2,50000,0,0.00,2,2,0,2,50000,50000,0,50000,0,0,0,0,0.00,0.00,0.00,0.00
2016-06-17 15:00:00,2,34699,0,0.00,2,2,0,2,13632,50000,10968,35998,0,0,0,0,0.00,0.00,0.00,0.00
2016-06-17 15:10:00,2,30264,0,0.00,2,2,0,2,5557,50000,16332,36679,0,0,0,0,0.00,0.00,0.00,0.00
2016-06-17 15:20:00,2,10812,3,0.00,2,2,0,2,2100,50000,13937,4496,0,10,5,0,0.00,0.00,0.00,0.00
2016-06-17 15:30:00,2,18912,17,0.01,2,2,0,2,2130,47212,16675,10982,0,41,16,10,0.00,0.05,0.02,0.00
2016-06-17 15:40:00,2,32487,0,0.00,2,2,0,2,19379,50000,11244,33785,0,0,0,0,0.00,0.00,0.00,0.00
2016-06-17 15:50:00,2,18824,0,0.00,2,2,0,2,3281,32042,9313,19955,0,0,0,0,0.00,0.00,0.00,0.00
2016-06-17 16:00:00,2,4098,9,0.00,2,2,0,2,3217,5841,919,3796,0,10,3,10,0.00,0.00,0.00,0.00
2016-06-17 16:10:00,2,3739,29,0.02,2,2,0,2,1702,7672,2176,2754,10,77,26,10,0.00,0.10,0.03,0.00
2016-06-17 16:20:00,2,7438,23,0.01,2,2,0,2,2767,17030,4987,4598,10,77,27,10,0.00,0.05,0.02,0.00
2016-06-17 16:30:00,2,16788,10,0.00,2,2,0,2,3091,40422,11931,14898,10,10,0,10,0.00,0.00,0.00,0.00
2016-06-17 16:40:00,2,15784,10,0.00,2,2,0,2,2745,39978,12597,10193,10,10,0,10,0.00,0.00,0.00,0.00
2016-06-17 16:50:00,2,13167,10,0.00,2,2,0,2,2515,36855,12674,7182,10,10,0,10,0.00,0.00,0.00,0.00
2016-06-17 17:00:00,2,15564,6,0.00,2,2,0,2,4430,30993,7943,14244,0,10,5,10,0.00,0.00,0.00,0.00
2016-06-17 17:10:00,2,6973,10,0.01,2,2,0,2,2088,10377,2604,6537,0,40,11,10,0.00,0.10,0.03,0.00
2016-06-17 17:20:00,2,1656,66,1.42,2,2,0,2,959,2614,474,1441,40,77,13,71,0.05,4.45,1.24,1.35
2016-06-17 17:30:00,2,1731,71,2.34,2,2,0,2,1127,2730,518,1586,71,71,0,71,0.60,4.85,1.20,2.40
2016-06-17 17:40:00,2,1779,71,2.16,2,2,0,2,1285,2677,484,1651,71,71,0,71,0.15,5.35,1.55,1.85
2016-06-17 17:50:00,2,2611,71,0.47,2,2,0,2,1443,6658,1577,1992,71,71,0,71,0.05,1.35,0.41,0.35
2016-06-17 18:00:00,2,1636,71,1.27,2,2,0,2,981,2711,576,1376,71,71,0,71,0.00,3.40,1.00,1.27
2016-06-17 18:10:00,2,11261,71,0.59,2,2,0,2,1705,43466,14094,3238,71,71,0,71,0.00,3.20,0.93,0.17
2016-06-17 18:20:00,2,49549,37,0.00,2,2,0,2,45623,50000,1309,50000,0,77,37,36,0.00,0.00,0.00,0.00
2016-06-17 18:30:00,2,11810,31,0.07,2,2,0,2,2632,26723,7150,11323,0,71,27,41,0.00,0.30,0.10,0.03
2016-06-17 18:40:00,2,3942,75,0.55,2,2,0,2,1261,5654,1350,4242,71,77,3,77,0.10,3.55,1.01,0.20
2016-06-17 18:50:00,2,7215,71,0.29,2,2,0,2,1936,20992,6292,4576,71,71,0,71,0.00,1.50,0.45,0.10
2016-06-17 19:00:00,2,45972,0,0.00,2,2,0,2,26244,50000,7495,50000,0,0,0,0,0.00,0.00,0.00,0.00
2016-06-17 19:10:00,2,49905,0,0.00,2,2,0,2,49050,50000,285,50000,0,0,0,0,0.00,0.00,0.00,0.00
2016-06-17 19:20:00,2,49759,0,0.00,2,2,0,2,48261,50000,518,50000,0,0,0,0,0.00,0.00,0.00,0.00
2016-06-17 19:30:00,2,49979,0,0.00,2,2,0,2,49829,50000,51,50000,0,0,0,0,0.00,0.00,0.00,0.00
2016-06-17 19:40:00,2,49886,0,0.00,2,2,0,2,49221,50000,246,50000,0,0,0,0,0.00,0.00,0.00,0.00
2016-06-17 19:50:00,2,49996,0,0.00,2,2,0,2,49958,50000,13,50000,0,0,0,0,0.00,0.00,0.00,0.00
2016-06-17 20:00:00,2,49726,0,0.00,2,2,0,2,47255,50000,824,50000,0,0,0,0,0.00,0.00,0.00,0.00
2016-06-17 20:10:00,2,49876,0,0.00,2,2,0,2,48760,50000,372,50000,0,0,0,0,0.00,0.00,0.00,0.00
2016-06-17 20:20:00,2,50000,0,0.00,2,2,0,2,50000,50000,0,50000,0,0,0,0,0.00,0.00,0.00,0.00
2016-06-17 20:30:00,2,48917,0,0.00,2,2,0,2,43596,50000,1922,49848,0,0,0,0,0.00,0.00,0.00,0.00
2016-06-17 20:40:00,2,46940,0,0.00,2,2,0,2,36877,50000,4129,48412,0,0,0,0,0.00,0.00,0.00,0.00
2016-06-17 20:50:00,2,22355,0,0.00,2,2,0,2,6759,47673,14225,16998,0,0,0,0,0.00,0.00,0.00,0.00
2016-06-17 21:00:00,2,5543,35,0.11,2,2,0,2,2101,11590,3606,3872,0,77,32,41,0.00,0.45,0.14,0.05
2016-06-17 21:10:00,2,5141,71,0.45,2,2,0,2,1972,13837,3330,3894,71,71,0,71,0.00,1.30,0.42,0.25
2016-06-17 21:20:00,2,26145,14,0.02,2,2,0,2,5577,45070,15669,24104,0,71,28,0,0.00,0.10,0.03,0.00
2016-06-17 21:30:00,2,25791,0,0.00,2,2,0,2,9588,50000,18039,13551,0,0,0,0,0.00,0.00,0.00,0.00
2016-06-17 21:40:00,2,27142,21,0.01,2,2,0,2,11949,45816,11677,23914,0,71,33,0,0.00,0.05,0.02,0.00
2016-06-17 21:50:00,2,9970,73,0.10,2,2,0,2,4137,19511,4391,9718,71,77,3,71,0.00,0.40,0.14,0.03
2016-06-17 22:00:00,2,8786,72,0.14,2,2,0,2,4710,20999,5546,6392,71,77,2,71,0.00,0.65,0.19,0.08
2016-06-17 22:10:00,2,20638,50,0.01,2,2,0,2,8325,37904,10688,16754,0,71,33,71,0.00,0.05,0.02,0.00
2016-06-17 22:20:00,2,43099,0,0.00,2,2,0,2,35516,50000,4445,44011,0,0,0,0,0.00,0.00,0.00,0.00
2016-06-17 22:30:00,2,44508,0,0.00,2,2,0,2,34560,50000,5101,43550,0,0,0,0,0.00,0.00,0.00,0.00
2016-06-17 22:40:00,2,47280,0,0.00,2,2,0,2,42382,50000,3011,48794,0,0,0,0,0.00,0.00,0.00,0.00
2016-06-17 22:50:00,2,47925,0,0.00,2,2,0,2,35985,50000,4196,50000,0,0,0,0,0.00,0.00,0.00,0.00
2016-06-17 23:00:00,2,44696,0,0.00,2,2,0,2,35742,50000,5614,46128,0,0,0,0,0.00,0.00,0.00,0.00
2016-06-17 23:10:00,2,48457,0,0.00,2,2,0,2,42444,50000,2514,50000,0,0,0,0,0.00,0.00,0.00,0.00
2016-06-17 23:20:00,2,36044,0,0.00,2,2,0,2,27678,50000,8308,31072,0,0,0,0,0.00,0.00,0.00,0.00
2016-06-17 23:30:00,2,39690,0,0.00,2,2,0,2,23714,50000,9641,43104,0,0,0,0,0.00,0.00,0.00,0.00
2016-06-17 23:40:00,2,39922,0,0.00,2,2,0,2,28893,47181,6352,42600,0,0,0,0,0.00,0.00,0.00,0.00
2016-06-17 23:50:00,2,46423,0,0.00,2,2,0,2,40771,50000,2818,47182,0,0,0,0,0.00,0.00,0.00,0.00
